"2009-11-03 00:00:00",1382686,1.736,33.96,11.39,1.114,2.751,100.8149,1.379,2.5,83.2,0,109.7,13.6,2.14,356.0
"2009-11-03 00:00:30",1382687,2.524,19.26,14.46,1.101,5.845,100.8149,1.379,2.662,83.3,0,109.7,13.6,2.14,341.3
"2009-11-03 00:01:00",1382688,2.633,25.33,6.493,1.179,5.11,100.8149,1.379,2.693,83.3,0,109.6,13.6,2.14,347.3
"2009-11-03 00:01:30",1382689,1.804,16.55,15.24,1.137,3.94,100.8149,1.379,2.606,83.2,0,109.6,13.6,2.14,338.5
"2009-11-03 00:02:00",1382690,0.782,13.19,15.36,0.453,1.558,100.8149,1.379,2.465,83.1,0,109.7,13.63,2.14,335.2
"2009-11-03 00:02:30",1382691,0.45,6.4,16.46,0.257,1.602,100.8149,1.379,2.461,83.1,0,109.6,13.63,2.14,328.4
"2009-11-03 00:03:00",1382692,1.934,22.51,8.02,1.365,3.328,100.8149,1.379,2.594,83.2,0,109.6,13.6,2.14,344.5
"2009-11-03 00:03:30",1382693,1.391,30.19,6.702,0.811,2.904,100.8149,1.379,2.611,83.2,0,109.6,13.6,2.14,352.2
"2009-11-03 00:04:00",1382694,1.766,24.71,14.26,1.386,4.384,100.8149,1.379,2.606,83.2,0,109.6,13.6,2.14,346.7
"2009-11-03 00:04:30",1382695,2.748,41.4,8.03,1.137,4.895,100.8149,1.379,2.647,83.3,0,109.6,13.6,2.14,3.4
"2009-11-03 00:05:00",1382696,2.598,42.1,7.291,1.068,4.803,100.8149,1.379,2.711,83.3,0,109.7,13.6,2.14,4.1
"2009-11-03 00:05:30",1382697,1.247,31.86,14.99,1.213,3.083,100.8149,1.379,2.496,83.1,0,109.7,13.6,2.14,353.9
"2009-11-03 00:06:00",1382698,0.78,7.262,5.703,0.183,1.601,100.8149,1.379,2.456,83.1,0,109.7,13.63,2.14,329.3
"2009-11-03 00:06:30",1382699,0.508,4.887,12.69,0.24,1.642,100.8149,1.379,2.544,83.2,0,109.7,13.63,2.14,326.9
"2009-11-03 00:07:00",1382700,1.737,14.33,14.76,1.14,3.563,100.8152,1.379,2.538,83.1,0,109.7,13.6,2.14,336.3
"2009-11-03 00:07:30",1382701,2.252,0.866,10.85,1.232,5.383,100.8155,1.38,2.739,83.3,0,109.7,13.6,2.14,322.9
"2009-11-03 00:08:00",1382702,1.186,18.71,11.46,0.884,2.497,100.8149,1.379,2.553,83.1,0,109.7,13.6,2.14,340.7
"2009-11-03 00:08:30",1382703,1.712,23.84,13.04,1.28,3.641,100.8149,1.379,2.54,83.1,0,109.7,13.6,2.14,345.8
"2009-11-03 00:09:00",1382704,2.239,22.5,15.75,1.342,4.164,100.8149,1.379,2.697,83.3,0,109.7,13.6,2.14,344.5
"2009-11-03 00:09:30",1382705,2.512,20.12,10.74,1.244,5.069,100.8155,1.38,2.72,83.3,0,109.7,13.61,2.14,342.1
"2009-11-03 00:10:00",1382706,0.614,8.08,8.9,0.736,1.928,100.8149,1.379,2.49,83.1,0,109.6,13.61,2.14,330.1
"2009-11-03 00:10:30",1382707,1.449,19.76,9.56,1.167,2.204,100.8149,1.379,2.482,83,0,109.6,13.6,2.14,341.8
"2009-11-03 00:11:00",1382708,1.393,12.77,13.04,1.06,3.587,100.8155,1.38,2.611,83.1,0,109.6,13.61,2.14,334.8
"2009-11-03 00:11:30",1382709,1.707,20.44,6.084,1.164,3.52,100.8155,1.38,2.617,83.1,0,109.7,13.61,2.14,342.4
"2009-11-03 00:12:00",1382710,1.755,23.7,8.26,1.179,3.465,100.8161,1.382,2.613,83.1,0,109.7,13.61,2.14,345.7
"2009-11-03 00:12:30",1382711,1.531,32.75,7.743,1.102,2.68,100.8158,1.381,2.633,83.2,0,109.7,13.61,2.14,354.8
"2009-11-03 00:13:00",1382712,1.999,22.52,11.61,1.461,3.639,100.8155,1.38,2.554,83.1,0,109.7,13.61,2.14,344.5
"2009-11-03 00:13:30",1382713,2.738,37.86,15.43,1.172,4.877,100.8161,1.382,2.634,83.2,0,109.7,13.61,2.14,359.9
"2009-11-03 00:14:00",1382714,1.367,29.34,6.915,0.892,2.727,100.8158,1.381,2.6,83.1,0,109.7,13.61,2.14,351.3
"2009-11-03 00:14:30",1382715,1.279,22.44,7.298,1.052,2.577,100.8172,1.384,2.565,83.1,0,109.7,13.61,2.14,344.4
"2009-11-03 00:15:00",1382716,2.655,41.82,11.21,1.308,5.026,100.8169,1.384,2.695,83.2,0,109.7,13.61,2.14,3.8
"2009-11-03 00:15:30",1382717,1.591,44.32,4.365,0.751,1.848,100.8158,1.381,2.621,83.2,0,109.7,13.6,2.14,6.3
"2009-11-03 00:16:00",1382718,1.939,43.65,5.115,0.909,2.303,100.8155,1.38,2.511,83.1,0,109.7,13.61,2.14,5.7
"2009-11-03 00:16:30",1382719,2.832,48.58,5.326,1.301,3.847,100.8152,1.379,2.646,83.3,0,109.7,13.61,2.14,10.6
"2009-11-03 00:17:00",1382720,2.654,44.59,7.88,1.197,4.395,100.8158,1.381,2.761,83.4,0,109.7,13.61,2.14,6.6
"2009-11-03 00:17:30",1382721,3.354,45.08,7.163,0.994,5.64,100.8155,1.38,2.651,83.3,0,109.7,13.61,2.14,7.1
"2009-11-03 00:18:00",1382722,2.704,38.99,6.584,1.342,4.13,100.8158,1.381,2.631,83.3,0,109.7,13.61,2.14,1.0
"2009-11-03 00:18:30",1382723,2.406,41.16,8.64,1.225,3.07,100.8161,1.382,2.582,83.3,0,109.7,13.6,2.14,3.2
"2009-11-03 00:19:00",1382724,2.217,48.06,5.899,1.02,2.887,100.8164,1.382,2.636,83.4,0,109.7,13.6,2.14,10.1
"2009-11-03 00:19:30",1382725,1.562,28.28,6.102,0.299,2.195,100.8164,1.382,2.615,83.5,0,109.7,13.64,2.14,350.3
"2009-11-03 00:20:00",1382726,2.902,42.44,9.06,1.268,3.758,100.8164,1.382,2.512,83.4,0,109.7,13.6,2.14,4.4
"2009-11-03 00:20:30",1382727,1.919,37.81,7.425,1.053,3.885,100.8167,1.383,2.758,83.7,0,109.7,13.6,2.14,359.8
"2009-11-03 00:21:00",1382728,3.231,42.3,6.894,1.118,5.346,100.8184,1.387,2.682,83.7,0,109.7,13.6,2.14,4.3
"2009-11-03 00:21:30",1382729,2.873,35.16,7.723,1.188,4.83,100.8169,1.384,2.69,83.8,0,109.7,13.6,2.14,357.2
"2009-11-03 00:22:00",1382730,2.32,32.96,7.476,1.258,3.465,100.8141,1.377,2.506,83.6,0,109.7,13.6,2.13,355.0
"2009-11-03 00:22:30",1382731,1.709,27.96,6.165,0.209,1.573,100.809,1.364,2.529,83.6,0,109.7,13.63,2.12,350.0
"2009-11-03 00:23:00",1382732,2.639,39.03,12.66,1.335,3.775,100.8037,1.35,2.545,83.6,0,109.7,13.6,2.11,1.0
"2009-11-03 00:23:30",1382733,2.394,40.46,8.2,1.21,3.661,100.7977,1.335,2.603,83.8,0,109.7,13.6,2.09,2.5
"2009-11-03 00:24:00",1382734,3.56,47.6,8.3,1.178,5.364,100.7921,1.32,2.663,83.9,0,109.7,13.6,2.08,9.6
"2009-11-03 00:24:30",1382735,4.024,40.87,6.336,0.584,6.531,100.7892,1.313,2.718,84,0,109.7,13.61,2.07,2.9
"2009-11-03 00:25:00",1382736,2.295,37.56,8.25,1.196,3.892,100.7864,1.306,2.58,83.9,0,109.7,13.61,2.06,359.6
"2009-11-03 00:25:30",1382737,1.866,40.1,6.948,0.878,2.403,100.7873,1.308,2.543,83.9,0,109.7,13.6,2.06,2.1
"2009-11-03 00:26:00",1382738,1.772,51.11,4.992,0.615,2.26,100.789,1.312,2.551,83.9,0,109.7,13.61,2.07,13.1
"2009-11-03 00:26:30",1382739,2.557,50.92,7.425,1.2,3.243,100.789,1.312,2.445,83.8,0,109.7,13.6,2.07,12.9
"2009-11-03 00:27:00",1382740,1.114,31.37,5.713,0.309,2.336,100.789,1.312,2.522,84,0,109.7,13.64,2.07,353.4
"2009-11-03 00:27:30",1382741,3.387,48.06,7.381,1.124,5.212,100.789,1.312,2.612,84.1,0,109.7,13.61,2.07,10.1
"2009-11-03 00:28:00",1382742,3.909,48.63,5.824,0.942,5.944,100.7901,1.315,2.7,84.2,0,109.7,13.61,2.07,10.6
"2009-11-03 00:28:30",1382743,3.056,40.08,9.28,1.346,5.047,100.7887,1.312,2.568,84.1,0,109.7,13.61,2.07,2.1
"2009-11-03 00:29:00",1382744,1.408,38.58,3.74,0.151,1.688,100.7898,1.315,2.454,84.1,0,109.7,13.64,2.07,0.6
"2009-11-03 00:29:30",1382745,2.476,45.53,9.06,1.241,3.68,100.7895,1.314,2.513,84.2,0,109.7,13.61,2.07,7.5
"2009-11-03 00:30:00",1382746,2.314,43.85,9.16,1.107,3.196,100.7904,1.316,2.563,84.3,0,109.7,13.61,2.07,5.8
"2009-11-03 00:30:30",1382747,1.631,34.44,4.383,0.24,1.952,100.7927,1.322,2.447,84.3,0,109.7,13.64,2.08,356.4
"2009-11-03 00:31:00",1382748,3.743,46.25,5.985,1.005,5.918,100.791,1.318,2.65,84.6,0,109.7,13.61,2.07,8.2
"2009-11-03 00:31:30",1382749,4.128,49.51,5.862,0.974,6.131,100.7927,1.322,2.661,84.6,0,109.7,13.61,2.08,11.5
"2009-11-03 00:32:00",1382750,3.172,50.05,6.991,1.222,4.703,100.7913,1.318,2.571,84.6,0,109.7,13.61,2.08,12.0
"2009-11-03 00:32:30",1382751,3.085,43.79,7.165,1.346,3.825,100.7876,1.309,2.426,84.5,0,109.7,13.61,2.07,5.8
"2009-11-03 00:33:00",1382752,3.277,51.42,8.63,1.303,3.826,100.7851,1.302,2.522,84.7,0,109.7,13.6,2.06,13.4
"2009-11-03 00:33:30",1382753,1.999,48.5,2.348,0.116,1.876,100.78,1.289,2.375,84.6,0,109.7,13.64,2.05,10.5
"2009-11-03 00:34:00",1382754,3.631,57.14,6.209,1.189,4.864,100.7743,1.275,2.619,84.9,0,109.7,13.61,2.03,19.1
"2009-11-03 00:34:30",1382755,4.329,67.84,5.868,0.701,6.711,100.7695,1.263,2.68,85.1,0,109.7,13.61,2.02,29.8
"2009-11-03 00:35:00",1382756,3.764,61.7,5.925,1.162,5.383,100.7653,1.252,2.576,85.1,0,109.7,13.6,2.01,23.7
"2009-11-03 00:35:30",1382757,2.521,56.58,6.774,1.269,4.459,100.7633,1.247,2.505,85.1,0,109.7,13.6,2.00,18.6
"2009-11-03 00:36:00",1382758,2.093,54.61,5.608,0.754,2.205,100.7641,1.249,2.439,85.1,0,109.6,13.6,2.01,16.6
"2009-11-03 00:36:30",1382759,2.034,56.92,4.484,0.598,2.335,100.7641,1.249,2.417,85.1,0,109.7,13.6,2.01,18.9
"2009-11-03 00:37:00",1382760,2.364,58.44,4.254,0.923,2.438,100.7658,1.253,2.356,85.1,0,109.7,13.6,2.01,20.4
"2009-11-03 00:37:30",1382761,3.236,62.68,5.441,1.197,4.97,100.767,1.256,2.598,85.5,0,109.6,13.6,2.01,24.7
"2009-11-03 00:38:00",1382762,3.844,64.34,5.59,1.075,6.036,100.7678,1.259,2.613,85.5,0,109.7,13.6,2.01,26.3
"2009-11-03 00:38:30",1382763,3.732,57.79,6.838,1.229,5.246,100.7678,1.259,2.528,85.5,0,109.6,13.6,2.01,19.8
"2009-11-03 00:39:00",1382764,2.275,53.13,8.3,0.924,3.365,100.7698,1.264,2.497,85.5,0,109.6,13.6,2.02,15.1
"2009-11-03 00:39:30",1382765,2.017,56.36,8.04,1.052,2.48,100.767,1.256,2.334,85.4,0,109.7,13.6,2.01,18.4
"2009-11-03 00:40:00",1382766,1.617,43.69,2.772,0.122,1.668,100.7678,1.259,2.362,85.5,0,109.7,13.64,2.01,5.7
"2009-11-03 00:40:30",1382767,2.913,51.72,6.495,1.269,4.981,100.7684,1.26,2.443,85.6,0,109.7,13.61,2.02,13.7
"2009-11-03 00:41:00",1382768,3.328,63.19,5.988,1.092,5.653,100.7695,1.263,2.59,85.8,0,109.6,13.61,2.02,25.2
"2009-11-03 00:41:30",1382769,3.233,58.43,6.234,1.129,5.962,100.7684,1.26,2.566,85.8,0,109.7,13.61,2.02,20.4
"2009-11-03 00:42:00",1382770,2.923,57.3,6.722,1.193,4.892,100.7701,1.264,2.578,85.8,0,109.6,13.61,2.02,19.3
"2009-11-03 00:42:30",1382771,2.288,50.24,7.477,1.163,3.084,100.7693,1.262,2.309,85.5,0,109.6,13.61,2.02,12.2
"2009-11-03 00:43:00",1382772,1.33,46.84,1.163,0.032,1.554,100.7704,1.265,2.308,85.5,0,109.7,13.64,2.02,8.8
"2009-11-03 00:43:30",1382773,1.304,54.63,4.492,0.075,1.615,100.7673,1.257,2.384,85.6,0,109.7,13.64,2.01,16.6
"2009-11-03 00:44:00",1382774,3.134,64.55,7.537,1.152,5.705,100.7696,1.263,2.476,85.7,0,109.7,13.61,2.02,26.6
"2009-11-03 00:44:30",1382775,2.837,62,8.53,1.147,5.363,100.7673,1.257,2.445,85.7,0,109.6,13.61,2.01,24.0
"2009-11-03 00:45:00",1382776,2.402,50.67,10.49,1.237,4.536,100.765,1.251,2.517,85.8,0,109.6,13.61,2.01,12.7
"2009-11-03 00:45:30",1382777,2.279,50.86,8.66,1.294,4.295,100.7628,1.246,2.56,85.8,0,109.6,13.61,2.00,12.9
"2009-11-03 00:46:00",1382778,1.668,49.65,7.408,1.075,2.282,100.7605,1.24,2.293,85.6,0,109.6,13.61,2.00,11.7
"2009-11-03 00:46:30",1382779,0.902,45.7,6.367,0.058,1.244,100.7605,1.24,2.28,85.6,0,109.6,13.64,2.00,7.7
"2009-11-03 00:47:00",1382780,1.933,45.05,5.674,1.272,3.377,100.758,1.233,2.384,85.6,0,109.6,13.61,1.99,7.0
"2009-11-03 00:47:30",1382781,2.185,44.58,6.962,1.26,4.089,100.7537,1.223,2.407,85.7,0,109.7,13.61,1.98,6.6
"2009-11-03 00:48:00",1382782,2.028,47.18,5.598,1.213,3.79,100.7543,1.224,2.377,85.6,0,109.7,13.61,1.98,9.2
"2009-11-03 00:48:30",1382783,3.388,58.19,4.454,0.802,6.193,100.7515,1.217,2.522,85.7,0,109.7,13.61,1.97,20.2
"2009-11-03 00:49:00",1382784,2.936,58.17,5.705,1.117,4.966,100.7478,1.207,2.47,85.6,0,109.7,13.61,1.96,20.2
"2009-11-03 00:49:30",1382785,1.384,60.07,8.25,0.922,2.789,100.7452,1.201,2.408,85.5,0,109.7,13.61,1.96,22.1
"2009-11-03 00:50:00",1382786,1.061,52.61,3.324,0.073,1.198,100.745,1.2,2.277,85.4,0,109.7,13.64,1.96,14.6
"2009-11-03 00:50:30",1382787,1.404,55.18,6.908,0.755,2.181,100.7435,1.197,2.404,85.5,0,109.7,13.61,1.95,17.2
"2009-11-03 00:51:00",1382788,2.89,70.53,7.902,1.191,5.147,100.7441,1.198,2.428,85.5,0,109.7,13.61,1.95,32.5
"2009-11-03 00:51:30",1382789,2.203,65.09,6.125,1.204,3.867,100.7455,1.202,2.396,85.4,0,109.7,13.61,1.96,27.1
"2009-11-03 00:52:00",1382790,2.483,63.45,7.124,1.254,4.425,100.745,1.2,2.475,85.5,0,109.7,13.61,1.96,25.5
"2009-11-03 00:52:30",1382791,2.703,72.88,7.139,1.203,5.182,100.7455,1.202,2.501,85.5,0,109.7,13.6,1.96,34.9
"2009-11-03 00:53:00",1382792,1.548,51.22,12.86,1.111,2.76,100.7453,1.201,2.317,85.3,0,109.7,13.6,1.96,13.2
"2009-11-03 00:53:30",1382793,0.666,53.17,11.01,0.159,1.516,100.7453,1.201,2.272,85.2,0,109.7,13.64,1.96,15.2
"2009-11-03 00:54:00",1382794,0.47,55.51,6.033,0.115,1.585,100.7439,1.197,2.274,85.2,0,109.7,13.64,1.95,17.5
"2009-11-03 00:54:30",1382795,1.783,60.44,19.69,1.286,4.2,100.7464,1.204,2.369,85.2,0,109.7,13.61,1.96,22.4
"2009-11-03 00:55:00",1382796,2.133,58.62,13.21,1.218,4.404,100.7455,1.202,2.459,85.3,0,109.7,13.61,1.96,20.6
"2009-11-03 00:55:30",1382797,2.127,66.41,8.54,1.24,4.52,100.7492,1.211,2.419,85.2,0,109.7,13.61,1.97,28.4
"2009-11-03 00:56:00",1382798,1.98,54.49,13.81,1.209,4.375,100.7523,1.219,2.501,85.3,0,109.7,13.61,1.98,16.5
"2009-11-03 00:56:30",1382799,2.05,39.24,11.66,1.257,4.394,100.7594,1.237,2.46,85.2,0,109.7,13.61,1.99,1.2
"2009-11-03 00:57:00",1382800,0.612,27.92,8.38,0.102,1.464,100.7651,1.251,2.273,85,0,109.7,13.65,2.01,349.9
"2009-11-03 00:57:30",1382801,0.668,58.51,10.24,0.187,1.2,100.7656,1.253,2.274,85,0,109.7,13.65,2.01,20.5
"2009-11-03 00:58:00",1382802,1.339,54.16,8.32,1.079,2.478,100.771,1.267,2.325,85,0,109.7,13.61,2.02,16.2
"2009-11-03 00:58:30",1382803,2.502,71.7,10.99,1.341,4.042,100.7716,1.268,2.375,85,0,109.7,13.61,2.02,33.7
"2009-11-03 00:59:00",1382804,2.261,71.92,4.375,1.19,4.379,100.7753,1.277,2.49,85.1,0,109.7,13.62,2.03,33.9
"2009-11-03 00:59:30",1382805,2.734,78.1,7.231,1.247,5.208,100.7756,1.278,2.544,85.2,0,109.7,13.61,2.03,40.1
"2009-11-03 01:00:00",1382806,2.661,83.4,6.614,1.141,5.167,100.777,1.282,2.526,85.1,0,109.7,13.61,2.04,45.4
"2009-11-03 01:00:30",1382807,2.431,81.1,6.498,1.232,4.27,100.7778,1.284,2.432,85,0,109.7,13.61,2.04,43.1
"2009-11-03 01:01:00",1382808,0.943,76.68,4.502,0.094,1.361,100.7775,1.283,2.288,84.8,0,109.7,13.65,2.04,38.7
"2009-11-03 01:01:30",1382809,1.071,74.58,8.48,0.132,1.319,100.7784,1.285,2.297,84.8,0,109.7,13.65,2.04,36.6
"2009-11-03 01:02:00",1382810,1.769,94,8.21,1.126,3.002,100.7767,1.281,2.354,84.9,0,109.7,13.61,2.04,56.0
"2009-11-03 01:02:30",1382811,2.782,92.1,7.038,1.182,5.302,100.7778,1.284,2.501,85.1,0,109.7,13.62,2.04,54.1
"2009-11-03 01:03:00",1382812,3.01,106,6.731,1.048,5.726,100.7778,1.284,2.47,85,0,109.7,13.62,2.04,68.0
"2009-11-03 01:03:30",1382813,2.581,108.3,8.52,1.23,4.964,100.7778,1.284,2.544,85.1,0,109.7,13.61,2.04,70.3
"2009-11-03 01:04:00",1382814,1.914,105.4,6.086,1.137,3.2,100.7778,1.284,2.394,85,0,109.7,13.61,2.04,67.4
"2009-11-03 01:04:30",1382815,1.115,96.3,7.083,0.066,1.466,100.7787,1.286,2.316,85,0,109.7,13.65,2.04,58.3
"2009-11-03 01:05:00",1382816,1.095,95.5,3.659,0.078,1.523,100.7781,1.285,2.326,85,0,109.7,13.65,2.04,57.5
"2009-11-03 01:05:30",1382817,1.074,96.5,3.987,0.452,2.338,100.779,1.287,2.383,85.1,0,109.7,13.65,2.04,58.5
"2009-11-03 01:06:00",1382818,3.094,102.3,6.079,1.013,6.165,100.779,1.287,2.544,85.4,0,109.7,13.62,2.04,64.3
"2009-11-03 01:06:30",1382819,2.619,104.5,8.22,1.197,5.746,100.7784,1.285,2.61,85.5,0,109.7,13.62,2.04,66.5
"2009-11-03 01:07:00",1382820,2.555,92.6,11.08,1.202,6.014,100.7778,1.284,2.608,85.5,0,109.7,13.62,2.04,54.6
"2009-11-03 01:07:30",1382821,1.576,79.55,5.446,1.133,3.362,100.7793,1.288,2.515,85.5,0,109.7,13.61,2.04,41.6
"2009-11-03 01:08:00",1382822,0.845,81.2,2.92,0.074,1.75,100.7787,1.286,2.379,85.4,0,109.7,13.64,2.04,43.2
"2009-11-03 01:08:30",1382823,0.73,78.38,3.169,0.057,1.329,100.7784,1.285,2.333,85.4,0,109.7,13.64,2.04,40.4
"2009-11-03 01:09:00",1382824,0.705,77.97,2.931,0.044,1.571,100.7801,1.29,2.348,85.4,0,109.7,13.64,2.05,40.0
"2009-11-03 01:09:30",1382825,0.711,78.55,2.226,0.049,2.189,100.7801,1.29,2.433,85.5,0,109.7,13.64,2.05,40.6
"2009-11-03 01:10:00",1382826,2.644,91.3,7.609,1.049,6.594,100.7778,1.284,2.576,85.6,0,109.7,13.61,2.04,53.3
"2009-11-03 01:10:30",1382827,2.548,87.6,6.906,1.069,6.778,100.7781,1.285,2.634,85.7,0,109.7,13.61,2.04,49.6
"2009-11-03 01:11:00",1382828,1.486,72.17,7.765,1.256,4.616,100.7801,1.29,2.598,85.6,0,109.7,13.61,2.05,34.2
"2009-11-03 01:11:30",1382829,1.71,75.73,6.729,1.171,3.269,100.7787,1.286,2.381,85.4,0,109.7,13.61,2.04,37.7
"2009-11-03 01:12:00",1382830,0.404,71.19,11.53,0.193,1.051,100.7804,1.291,2.331,85.3,0,109.7,13.64,2.05,33.2
"2009-11-03 01:12:30",1382831,0.367,60.85,8.58,0.052,0.623,100.7804,1.291,2.347,85.3,0,109.7,13.65,2.05,22.8
"2009-11-03 01:13:00",1382832,0.617,52.17,5.219,0.09,1.227,100.7804,1.291,2.344,85.3,0,109.7,13.65,2.05,14.2
"2009-11-03 01:13:30",1382833,1.136,47.72,8.91,1.097,2.933,100.7795,1.288,2.486,85.3,0,109.7,13.62,2.04,9.7
"2009-11-03 01:14:00",1382834,2.328,62.92,7.89,1.258,4.997,100.7793,1.288,2.532,85.3,0,109.6,13.62,2.04,24.9
"2009-11-03 01:14:30",1382835,2.783,77.6,6.446,0.97,6.508,100.7795,1.288,2.595,85.4,0,109.7,13.62,2.04,39.6
"2009-11-03 01:15:00",1382836,2.672,78.64,4.916,1.196,5.219,100.7801,1.29,2.478,85.2,0,109.7,13.62,2.05,40.6
"2009-11-03 01:15:30",1382837,0.987,77.8,6.198,0.443,2.016,100.7798,1.289,2.49,85.1,0,109.7,13.65,2.05,39.8
"2009-11-03 01:16:00",1382838,1.507,73.25,8.08,1.087,2.166,100.7804,1.291,2.362,84.9,0,109.7,13.62,2.05,35.2
"2009-11-03 01:16:30",1382839,0.549,55.25,5.815,0.074,1.021,100.7801,1.29,2.343,84.9,0,109.7,13.65,2.05,17.2
"2009-11-03 01:17:00",1382840,0.562,43.44,4.484,0.159,1.341,100.7804,1.291,2.332,84.9,0,109.7,13.65,2.05,5.4
"2009-11-03 01:17:30",1382841,0.91,43.81,9.32,1.016,2.599,100.7798,1.289,2.403,84.9,0,109.7,13.62,2.05,5.8
"2009-11-03 01:18:00",1382842,2.648,53.88,8.32,0.966,6.194,100.7793,1.288,2.614,85.1,0,109.7,13.62,2.04,15.9
"2009-11-03 01:18:30",1382843,2.133,34.7,11.58,1.136,5.619,100.7781,1.285,2.587,85.1,0,109.7,13.62,2.04,356.7
"2009-11-03 01:19:00",1382844,0.923,29,7.582,1.134,3.032,100.7801,1.29,2.353,84.9,0,109.7,13.62,2.05,351.0
"2009-11-03 01:19:30",1382845,0.899,57.94,19.38,1.011,1.717,100.7801,1.29,2.319,84.9,0,109.7,13.62,2.05,19.9
"2009-11-03 01:20:00",1382846,1.579,64.41,12.17,1.277,2.695,100.7793,1.288,2.479,85.1,0,109.7,13.62,2.04,26.4
"2009-11-03 01:20:30",1382847,0.884,72.95,8.97,0.784,1.319,100.7787,1.286,2.324,84.9,0,109.7,13.62,2.04,34.9
"2009-11-03 01:21:00",1382848,0.526,75.96,6.433,0.127,1.228,100.7801,1.29,2.344,84.9,0,109.7,13.65,2.05,38.0
"2009-11-03 01:21:30",1382849,1.636,75.11,14.04,1.223,3.559,100.7775,1.283,2.436,85,0,109.7,13.62,2.04,37.1
"2009-11-03 01:22:00",1382850,1.951,70.36,9.61,1.21,4.387,100.7773,1.283,2.505,85.1,0,109.7,13.62,2.04,32.4
"2009-11-03 01:22:30",1382851,1.984,69.82,7.33,1.257,4.568,100.7784,1.285,2.593,85.2,0,109.6,13.62,2.04,31.8
"2009-11-03 01:23:00",1382852,2.48,54.42,8.63,1.076,5.149,100.779,1.287,2.539,85.1,0,109.7,13.62,2.04,16.4
"2009-11-03 01:23:30",1382853,1.139,54.28,6.362,0.744,1.426,100.7795,1.288,2.333,84.9,0,109.7,13.62,2.04,16.3
"2009-11-03 01:24:00",1382854,2.08,70.27,13.18,1.282,3.347,100.779,1.287,2.492,85.1,0,109.6,13.61,2.04,32.3
"2009-11-03 01:24:30",1382855,0.747,83.3,13.85,0.311,1.324,100.7793,1.288,2.324,85,0,109.7,13.61,2.04,45.3
"2009-11-03 01:25:00",1382856,1.334,106.3,9.74,1.044,2.26,100.7807,1.291,2.335,85,0,109.7,13.61,2.05,68.3
"2009-11-03 01:25:30",1382857,2.005,107.1,8.2,1.274,3.812,100.7795,1.288,2.48,85.2,0,109.7,13.61,2.04,69.1
"2009-11-03 01:26:00",1382858,2.047,100.1,8.16,1.268,4.177,100.7804,1.291,2.428,85.2,0,109.7,13.61,2.05,62.1
"2009-11-03 01:26:30",1382859,2.348,106,13.15,1.276,4.412,100.781,1.292,2.484,85.3,0,109.7,13.61,2.05,68.0
"2009-11-03 01:27:00",1382860,2.271,93.7,17.34,1.335,4.03,100.7798,1.289,2.434,85.4,0,109.6,13.61,2.05,55.7
"2009-11-03 01:27:30",1382861,1.775,91.5,6.556,0.891,2.586,100.7807,1.291,2.428,85.6,0,109.7,13.61,2.05,53.5
"2009-11-03 01:28:00",1382862,2.381,97.4,7.389,1.111,3.73,100.7807,1.291,2.449,85.8,0,109.7,13.61,2.05,59.4
"2009-11-03 01:28:30",1382863,2.231,94.6,14.59,1.137,3.721,100.7801,1.29,2.445,85.9,0,109.7,13.61,2.05,56.6
"2009-11-03 01:29:00",1382864,1.693,99.9,8.63,1.108,3.649,100.7801,1.29,2.509,86,0,109.7,13.62,2.05,61.9
"2009-11-03 01:29:30",1382865,2.138,105.9,5.604,1.138,3.754,100.7804,1.291,2.383,85.9,0,109.7,13.62,2.05,67.9
"2009-11-03 01:30:00",1382866,2.346,113,6.67,1.177,3.771,100.7804,1.291,2.562,86.2,0,109.7,13.62,2.05,75.0
"2009-11-03 01:30:30",1382867,3.591,121.4,5.482,1.086,5.132,100.781,1.292,2.469,86.2,0,109.7,13.62,2.05,83.4
"2009-11-03 01:31:00",1382868,3.57,124.5,7.158,1.072,5.316,100.7801,1.29,2.53,86.3,0,109.7,13.62,2.05,86.5
"2009-11-03 01:31:30",1382869,2.328,125.9,9.22,1.101,2.706,100.7813,1.293,2.379,86.3,0,109.7,13.62,2.05,87.9
"2009-11-03 01:32:00",1382870,1.959,115.3,7.068,1.17,3.51,100.781,1.292,2.458,86.4,0,109.7,13.62,2.05,77.3
"2009-11-03 01:32:30",1382871,2.506,117,11.64,1.314,4.58,100.7813,1.293,2.583,86.6,0,109.6,13.62,2.05,79.0
"2009-11-03 01:33:00",1382872,1.779,102.5,12.96,1.298,4.204,100.781,1.292,2.422,86.5,0,109.7,13.62,2.05,64.5
"2009-11-03 01:33:30",1382873,0.759,85.7,75.32,1.008,3.023,100.7813,1.293,2.379,86.6,0,109.7,13.62,2.05,47.7
"2009-11-03 01:34:00",1382874,0.542,71.37,31.63,0.876,2.659,100.7813,1.293,2.439,86.6,0,109.7,13.62,2.05,33.4
"2009-11-03 01:34:30",1382875,0.831,13.92,38.73,1.151,2.739,100.7807,1.291,2.364,86.6,0,109.7,13.62,2.05,335.9
"2009-11-03 01:35:00",1382876,0.125,13.03,48.16,0.101,1.039,100.7813,1.293,2.421,86.6,0,109.6,13.65,2.05,335.0
"2009-11-03 01:35:30",1382877,1.42,85.9,24.2,1.249,3.305,100.7813,1.293,2.376,86.6,0,109.7,13.62,2.05,47.9
"2009-11-03 01:36:00",1382878,0.438,79.32,17.64,0.16,1.083,100.7813,1.293,2.401,86.6,0,109.7,13.66,2.05,41.3
"2009-11-03 01:36:30",1382879,0.691,100.8,16.96,0.648,1.328,100.7813,1.293,2.398,86.7,0,109.7,13.62,2.05,62.8
"2009-11-03 01:37:00",1382880,2.367,84.7,11.19,1.278,5.093,100.7804,1.291,2.556,86.8,0,109.7,13.62,2.05,46.7
"2009-11-03 01:37:30",1382881,2.359,86.1,12.91,1.362,4.835,100.7793,1.288,2.468,86.8,0,109.7,13.62,2.04,48.1
"2009-11-03 01:38:00",1382882,1.636,103.4,8.96,1.145,2.972,100.7793,1.288,2.344,86.7,0,109.7,13.62,2.04,65.4
"2009-11-03 01:38:30",1382883,1.761,102.9,6.353,1.143,2.765,100.7781,1.285,2.377,86.8,0,109.7,13.62,2.04,64.9
"2009-11-03 01:39:00",1382884,2.81,109.4,11.99,1.082,5.708,100.7742,1.275,2.502,87,0,109.6,13.62,2.03,71.4
"2009-11-03 01:39:30",1382885,1.4,122,6.161,0.689,1.699,100.7728,1.271,2.339,87,0,109.6,13.62,2.03,84.0
"2009-11-03 01:40:00",1382886,2.321,127.1,6.865,1.468,3.475,100.7736,1.273,2.418,87.1,0,109.6,13.62,2.03,89.1
"2009-11-03 01:40:30",1382887,2.95,130.3,6.849,1.221,4.114,100.7699,1.264,2.43,87.1,0,109.6,13.61,2.02,92.3
"2009-11-03 01:41:00",1382888,2.063,128.4,7.732,1.15,3.141,100.7691,1.262,2.393,87.1,0,109.7,13.62,2.02,90.4
"2009-11-03 01:41:30",1382889,2.512,132.7,7.202,1.218,3.234,100.7685,1.26,2.391,87.2,0,109.7,13.61,2.02,94.7
"2009-11-03 01:42:00",1382890,2.655,141.2,8.24,1.246,4.122,100.766,1.254,2.415,87.2,0,109.7,13.61,2.01,103.2
"2009-11-03 01:42:30",1382891,1.937,134.9,10.32,1.277,3.849,100.7671,1.257,2.467,87.3,0,109.7,13.61,2.01,96.9
"2009-11-03 01:43:00",1382892,0.87,112.4,17.87,1.074,3.018,100.7645,1.25,2.433,87.3,0,109.6,13.61,2.01,74.4
"2009-11-03 01:43:30",1382893,1.019,129.9,15.38,0.871,2.338,100.7665,1.255,2.292,87.2,0,109.7,13.61,2.01,91.9
"2009-11-03 01:44:00",1382894,2.468,144.5,14.19,1.139,4.703,100.7637,1.248,2.488,87.4,0,109.7,13.61,2.00,106.5
"2009-11-03 01:44:30",1382895,2.145,149.1,5.915,1.246,4.29,100.762,1.244,2.52,87.5,0,109.7,13.61,2.00,111.1
"2009-11-03 01:45:00",1382896,1.484,149.9,9.52,0.746,2.219,100.76,1.239,2.292,87.3,0,109.6,13.62,1.99,111.9
"2009-11-03 01:45:30",1382897,3.106,147.3,7.807,1.261,4.679,100.7572,1.231,2.418,87.4,0,109.7,13.62,1.99,109.3
"2009-11-03 01:46:00",1382898,3.162,149.7,7.404,1.178,5.028,100.7541,1.223,2.538,87.6,0,109.6,13.62,1.98,111.7
"2009-11-03 01:46:30",1382899,2.927,151.1,6.665,1.22,5.186,100.7527,1.22,2.506,87.5,0,109.7,13.62,1.98,113.1
"2009-11-03 01:47:00",1382900,1.831,142.2,7.376,1.15,2.695,100.749,1.21,2.349,87.4,0,109.7,13.62,1.97,104.2
"2009-11-03 01:47:30",1382901,3.083,145.2,6.294,1.129,5.178,100.7495,1.212,2.419,87.5,0,109.7,13.62,1.97,107.2
"2009-11-03 01:48:00",1382902,1.468,136.9,5.565,0.72,2.972,100.7487,1.21,2.443,87.5,0,109.6,13.62,1.97,98.9
"2009-11-03 01:48:30",1382903,1.506,135.7,6.543,1.086,2.944,100.7473,1.206,2.291,87.4,0,109.7,13.62,1.96,97.7
"2009-11-03 01:49:00",1382904,1.861,136.2,9.26,1.202,3.708,100.7476,1.207,2.413,87.5,0,109.7,13.62,1.96,98.2
"2009-11-03 01:49:30",1382905,2.668,131.4,8.91,1.1,5.216,100.7473,1.206,2.43,87.5,0,109.7,13.62,1.96,93.4
"2009-11-03 01:50:00",1382906,1.281,130.5,6.997,0.878,3.004,100.7473,1.206,2.371,87.5,0,109.7,13.62,1.96,92.5